When you browse on this site, cookies collect data to enhance your experience and personalize the content and advertising you see.
Visit our Privacy Policy to learn more. By continuing to use the site, you agree to this use of cookies and data.
  • In Portugal
  • List of Countries
  • For 7 days
  • Water Temperature
  • Satellite Maps
  • Weather Map
  • Weather Widgets
  • user-avatar
    Login

    Hourly Weather Vidin

    Today, 17 November, Saturday

    Time Temperature Precipitation Wind Pressure Humidity
    00:00 +3°C° 0 mm 3 mps 769 mmHg 70%
    01:00 +3°C° 0 mm 3 mps 769 mmHg 70%
    02:00 +1°C° 0 mm 4 mps 769 mmHg 70%
    03:00 +1°C° 0 mm 4 mps 769 mmHg 70%
    04:00 +1°C° 0 mm 4 mps 769 mmHg 69%
    05:00 0°C° 0 mm 4 mps 769 mmHg 69%
    06:00 0°C° 0 mm 4 mps 769 mmHg 69%
    07:00 0°C° 0 mm 4 mps 769 mmHg 69%
    08:00 0°C° 0 mm 4 mps 770 mmHg 71%
    09:00 0°C° 0 mm 4 mps 770 mmHg 68%
    10:00 +1°C° 0 mm 4 mps 770 mmHg 65%
    11:00 +1°C° 0 mm 5 mps 770 mmHg 63%
    12:00 +2°C° 0 mm 5 mps 769 mmHg 61%
    13:00 +2°C° 0 mm 5 mps 769 mmHg 60%
    14:00 +2°C° 0 mm 5 mps 769 mmHg 62%
    15:00 +2°C° 0 mm 5 mps 769 mmHg 64%
    16:00 +1°C° 0 mm 5 mps 769 mmHg 66%
    17:00 +1°C° 0 mm 5 mps 769 mmHg 68%
    18:00 +1°C° 0 mm 4 mps 770 mmHg 70%
    19:00 +1°C° 0 mm 4 mps 770 mmHg 71%
    20:00 0°C° 0 mm 4 mps 770 mmHg 73%
    21:00 0°C° 0 mm 4 mps 770 mmHg 74%
    22:00 0°C° 0 mm 4 mps 770 mmHg 74%
    23:00 0°C° 0 mm 4 mps 770 mmHg 75%

    Tomorrow, 18 November, Sunday

    Time Temperature Precipitation Wind Pressure Humidity
    00:00 0°C° 0 mm 4 mps 770 mmHg 74%
    01:00 0°C° 0 mm 4 mps 769 mmHg 74%
    02:00 0°C° 0 mm 4 mps 769 mmHg 73%
    03:00 0°C° 0 mm 4 mps 769 mmHg 73%
    04:00 -1°C° 0 mm 4 mps 769 mmHg 73%
    05:00 0°C° 0 mm 3 mps 768 mmHg 73%
    06:00 0°C° 0 mm 3 mps 768 mmHg 74%
    07:00 0°C° 0 mm 3 mps 768 mmHg 74%
    08:00 0°C° 0 mm 3 mps 767 mmHg 75%
    09:00 0°C° 0 mm 3 mps 767 mmHg 74%
    10:00 +1°C° 0 mm 3 mps 766 mmHg 73%
    11:00 +1°C° 0 mm 3 mps 766 mmHg 72%
    12:00 +1°C° 0 mm 3 mps 765 mmHg 72%
    13:00 +2°C° 0 mm 3 mps 764 mmHg 71%
    14:00 +2°C° 0 mm 3 mps 764 mmHg 70%
    15:00 +2°C° 0.1 mm 3 mps 763 mmHg 73%
    16:00 +2°C° 0.1 mm 3 mps 763 mmHg 75%
    17:00 +2°C° 0.1 mm 2 mps 762 mmHg 78%
    18:00 +2°C° 0.7 mm 2 mps 762 mmHg 82%
    19:00 +2°C° 0.7 mm 2 mps 761 mmHg 86%
    20:00 +2°C° 0.7 mm 2 mps 761 mmHg 90%
    21:00 +2°C° 1.2 mm 2 mps 760 mmHg 92%
    22:00 +1°C° 1.2 mm 2 mps 760 mmHg 94%
    23:00 +1°C° 1.2 mm 2 mps 759 mmHg 96%

    Day after tomorrow, 19 November, Monday

    Time Temperature Precipitation Wind Pressure Humidity
    00:00 +1°C° 1.4 mm 2 mps 759 mmHg 96%
    01:00 +1°C° 1.4 mm 2 mps 759 mmHg 97%
    02:00 +1°C° 1.4 mm 2 mps 758 mmHg 97%
    03:00 +1°C° 0.9 mm 2 mps 758 mmHg 97%
    04:00 +1°C° 0.9 mm 2 mps 758 mmHg 97%
    05:00 +1°C° 0.9 mm 2 mps 757 mmHg 98%
    06:00 +1°C° 0.4 mm 2 mps 758 mmHg 98%
    07:00 +2°C° 0.4 mm 1 mps 758 mmHg 98%
    08:00 +2°C° 0.4 mm 1 mps 758 mmHg 98%
    09:00 +3°C° 0.3 mm 1 mps 758 mmHg 98%
    10:00 +3°C° 0.3 mm 1 mps 759 mmHg 98%
    11:00 +3°C° 0.3 mm 1 mps 759 mmHg 98%
    12:00 +3°C° 0.1 mm 1 mps 759 mmHg 98%
    13:00 +3°C° 0.1 mm 1 mps 759 mmHg 98%
    14:00 +4°C° 0.1 mm 1 mps 759 mmHg 98%
    15:00 +3°C° 0 mm 1 mps 759 mmHg 98%
    16:00 +3°C° 0 mm 1 mps 760 mmHg 98%
    17:00 +3°C° 0 mm 1 mps 760 mmHg 99%
    18:00 +3°C° 0 mm 1 mps 761 mmHg 99%
    19:00 +3°C° 0 mm 1 mps 761 mmHg 99%
    20:00 +3°C° 0 mm 1 mps 762 mmHg 99%
    21:00 +2°C° 0 mm 1 mps 762 mmHg 99%
    22:00 +2°C° 0 mm 1 mps 762 mmHg 98%
    23:00 +2°C° 0 mm 1 mps 762 mmHg 98%

    20 November, Tuesday

    Time Temperature Precipitation Wind Pressure Humidity
    00:00 +2°C° 0 mm 1 mps 762 mmHg 98%
    01:00 +2°C° 0 mm 1 mps 762 mmHg 98%
    02:00 +1°C° 0 mm 2 mps 762 mmHg 98%
    03:00 +1°C° 0 mm 2 mps 762 mmHg 98%
    04:00 +2°C° 0 mm 2 mps 762 mmHg 98%
    05:00 +1°C° 0 mm 3 mps 761 mmHg 98%
    06:00 +1°C° 0.5 mm 3 mps 761 mmHg 97%
    07:00 +1°C° 0.5 mm 3 mps 761 mmHg 97%
    08:00 0°C° 0.5 mm 4 mps 761 mmHg 97%
    09:00 0°C° 0.5 mm 4 mps 761 mmHg 98%
    10:00 0°C° 0.5 mm 4 mps 761 mmHg 98%
    11:00 +1°C° 0.5 mm 4 mps 761 mmHg 98%
    12:00 +1°C° 0.5 mm 4 mps 760 mmHg 98%
    13:00 +1°C° 0.5 mm 4 mps 760 mmHg 98%
    14:00 +1°C° 0.5 mm 4 mps 759 mmHg 99%
    15:00 +1°C° 0.4 mm 4 mps 759 mmHg 98%
    16:00 +1°C° 0.4 mm 4 mps 759 mmHg 98%
    17:00 +1°C° 0.4 mm 4 mps 759 mmHg 97%
    18:00 +1°C° 0.2 mm 4 mps 759 mmHg 97%
    19:00 +1°C° 0.2 mm 4 mps 758 mmHg 97%
    20:00 +1°C° 0.2 mm 4 mps 758 mmHg 97%
    21:00 +1°C° 0.1 mm 4 mps 758 mmHg 97%
    22:00 +1°C° 0.1 mm 4 mps 758 mmHg 97%
    23:00 +2°C° 0.1 mm 3 mps 758 mmHg 97%

    21 November, Wednesday

    Time Temperature Precipitation Wind Pressure Humidity
    00:00 +2°C° 0.6 mm 3 mps 758 mmHg 97%
    01:00 +2°C° 0.6 mm 3 mps 757 mmHg 97%
    02:00 +2°C° 0.6 mm 3 mps 757 mmHg 98%
    03:00 +2°C° 0.7 mm 3 mps 756 mmHg 98%
    04:00 +2°C° 0.7 mm 3 mps 756 mmHg 98%
    05:00 +3°C° 0.7 mm 2 mps 755 mmHg 98%
    06:00 +3°C° 1.4 mm 2 mps 755 mmHg 98%
    07:00 +3°C° 1.4 mm 2 mps 755 mmHg 98%
    08:00 +3°C° 1.4 mm 2 mps 755 mmHg 98%
    09:00 +4°C° 1.3 mm 2 mps 755 mmHg 97%
    10:00 +4°C° 1.3 mm 2 mps 756 mmHg 97%
    11:00 +5°C° 1.3 mm 1 mps 756 mmHg 97%
    12:00 +5°C° 0.5 mm 2 mps 756 mmHg 96%
    13:00 +5°C° 0.5 mm 2 mps 756 mmHg 95%
    14:00 +5°C° 0.5 mm 2 mps 756 mmHg 95%
    15:00 +5°C° 0.3 mm 2 mps 757 mmHg 95%
    16:00 +5°C° 0.3 mm 2 mps 757 mmHg 95%
    17:00 +6°C° 0.3 mm 2 mps 757 mmHg 95%
    18:00 +6°C° 0.2 mm 2 mps 758 mmHg 95%
    19:00 +7°C° 0.2 mm 1 mps 758 mmHg 95%
    20:00 +7°C° 0.2 mm 1 mps 759 mmHg 95%
    21:00 +7°C° 0.1 mm 1 mps 759 mmHg 94%
    22:00 +7°C° 0.1 mm 1 mps 760 mmHg 94%
    23:00 +7°C° 0.1 mm 1 mps 760 mmHg 94%

    22 November, Thursday

    Time Temperature Precipitation Wind Pressure Humidity
    00:00 +7°C° 0 mm 1 mps 760 mmHg 94%
    01:00 +7°C° 0 mm 1 mps 760 mmHg 94%
    02:00 +6°C° 0 mm 0 mps 761 mmHg 94%
    03:00 +6°C° 0 mm 0 mps 761 mmHg 94%
    04:00 +6°C° 0 mm 0 mps 761 mmHg 94%
    05:00 +7°C° 0 mm 1 mps 761 mmHg 94%
    06:00 +7°C° 0 mm 1 mps 762 mmHg 94%
    07:00 +6°C° 0 mm 1 mps 762 mmHg 93%
    08:00 +6°C° 0 mm 1 mps 762 mmHg 93%
    09:00 +7°C° 0 mm 1 mps 763 mmHg 90%
    10:00 +8°C° 0 mm 1 mps 763 mmHg 87%
    11:00 +8°C° 0 mm 2 mps 763 mmHg 84%
    12:00 +8°C° 0 mm 2 mps 763 mmHg 84%
    13:00 +9°C° 0 mm 2 mps 763 mmHg 83%
    14:00 +9°C° 0 mm 2 mps 763 mmHg 83%
    15:00 +8°C° 0 mm 2 mps 763 mmHg 85%
    16:00 +8°C° 0 mm 2 mps 763 mmHg 86%
    17:00 +7°C° 0 mm 2 mps 764 mmHg 88%
    18:00 +7°C° 0 mm 2 mps 764 mmHg 88%
    19:00 +7°C° 0 mm 2 mps 765 mmHg 88%
    20:00 +7°C° 0 mm 2 mps 765 mmHg 88%
    21:00 +7°C° 0 mm 2 mps 765 mmHg 88%
    22:00 +6°C° 0 mm 2 mps 766 mmHg 88%
    23:00 +6°C° 0 mm 2 mps 766 mmHg 87%
    Show more